sat.trackr.live / text

‹ back to catalog

STARLINK-33953

NORAD 64028 · 2025-102G

PAYLOAD ACTIVE UNKNOWN

§ Identity

Operator
Country
US
Launch date
2025-05-16
Launch site
AFWTR
Launch vehicle
Mass (kg)
RCS (m²)

Purposes: comms

External: N2YO · Heavens-Above · Gunter

§ Orbital elements

Epoch: 2026-05-25T02:38:50.133408Z

Period
96.11 min
Inclination
70.0022°
Eccentricity
0.0002530
Mean motion
14.98343586 rev/d
Perigee alt
570.3 km
Apogee alt
573.8 km
Semi-major
6,950.2 km
B*
5.8484e-4
RAAN
281.5875°
Arg perigee
266.3181°
Mean anomaly
93.7689°
Rev number
5,750

§ Raw data

STARLINK-339531 64028U 25102G   26145.11030247  .00006894  00000+0  58484-3 0  99942 64028  70.0022 281.5875 0002530 266.3181  93.7689 14.98343586 57506

JSON: /api/v1/satellites/64028 · /tle

For live sub-satellite position, see the globe view (requires WebGL).

§ Visibility from observer

Set your observer location to see the next 7 days of passes ≥ 10°. The values pass through the URL so the page stays shareable.

No JS? Fill the form by hand. The geolocation button needs JavaScript.